Time,TemperatureF,DewpointF,PressureIn,WindDirection,WindDirectionDegrees,WindSpeedMPH,WindSpeedGustMPH,Humidity,HourlyPrecipIn,Conditions,Clouds,dailyrainin,SolarRadiationWatts/m^2,SoftwareType,DateUTC
2013-01-07 00:02:00,37.0,12.0,-100.00,WNW,293,8.0,20.0,35,0.00,,,0.00,17.000000,,2013-01-07 07:02:00,
2013-01-07 00:12:00,37.0,12.0,-100.00,WNW,293,8.0,20.0,35,0.00,,,0.00,17.000000,,2013-01-07 07:12:00,
2013-01-07 00:22:00,37.0,12.0,-100.00,WNW,293,8.0,20.0,35,0.00,,,0.00,17.000000,,2013-01-07 07:22:00,
2013-01-07 00:33:00,37.0,12.0,-100.00,WNW,293,8.0,20.0,35,0.00,,,0.00,17.000000,,2013-01-07 07:33:00,
2013-01-07 00:53:00,39.0,15.0,-100.00,NW,304,8.0,18.0,37,0.00,,,0.00,21.000000,,2013-01-07 07:53:00,
2013-01-07 01:03:00,39.0,15.0,-100.00,NW,304,8.0,18.0,37,0.00,,,0.00,21.000000,,2013-01-07 08:03:00,
2013-01-07 01:12:00,39.0,15.0,-100.00,NW,304,8.0,18.0,37,0.00,,,0.00,21.000000,,2013-01-07 08:12:00,
2013-01-07 01:22:00,39.0,15.0,-100.00,NW,304,8.0,18.0,37,0.00,,,0.00,21.000000,,2013-01-07 08:22:00,
2013-01-07 01:32:00,39.0,15.0,-100.00,NW,304,8.0,18.0,37,0.00,,,0.00,21.000000,,2013-01-07 08:32:00,
2013-01-07 01:53:00,39.0,17.0,-100.00,NW,310,7.0,15.0,40,0.00,,,0.00,24.000000,,2013-01-07 08:53:00,
2013-01-07 02:02:00,39.0,17.0,-100.00,NW,310,7.0,15.0,40,0.00,,,0.00,24.000000,,2013-01-07 09:02:00,
2013-01-07 02:12:00,39.0,17.0,-100.00,NW,310,7.0,15.0,40,0.00,,,0.00,24.000000,,2013-01-07 09:12:00,
2013-01-07 02:22:00,39.0,17.0,-100.00,NW,310,7.0,15.0,40,0.00,,,0.00,24.000000,,2013-01-07 09:22:00,
2013-01-07 02:32:00,39.0,17.0,-100.00,NW,310,7.0,15.0,40,0.00,,,0.00,24.000000,,2013-01-07 09:32:00,
2013-01-07 02:52:00,38.0,18.0,-100.00,SE,131,1.0,14.0,44,0.00,,,0.00,19.000000,,2013-01-07 09:52:00,
2013-01-07 03:02:00,38.0,18.0,-100.00,SE,131,1.0,14.0,44,0.00,,,0.00,19.000000,,2013-01-07 10:02:00,
2013-01-07 03:12:00,38.0,18.0,-100.00,SE,131,1.0,14.0,44,0.00,,,0.00,19.000000,,2013-01-07 10:12:00,
2013-01-07 03:22:00,38.0,18.0,-100.00,SE,131,1.0,14.0,44,0.00,,,0.00,19.000000,,2013-01-07 10:22:00,
2013-01-07 03:32:00,38.0,18.0,-100.00,SE,131,1.0,14.0,44,0.00,,,0.00,19.000000,,2013-01-07 10:32:00,
2013-01-07 03:52:00,35.0,17.0,-100.00,West,271,4.0,5.0,48,0.00,,,0.00,15.000000,,2013-01-07 10:52:00,
2013-01-07 04:02:00,35.0,17.0,-100.00,West,271,4.0,5.0,48,0.00,,,0.00,15.000000,,2013-01-07 11:02:00,
2013-01-07 04:12:00,35.0,17.0,-100.00,West,271,4.0,5.0,48,0.00,,,0.00,15.000000,,2013-01-07 11:12:00,
2013-01-07 04:22:00,35.0,17.0,-100.00,West,271,4.0,5.0,48,0.00,,,0.00,15.000000,,2013-01-07 11:22:00,
2013-01-07 04:32:00,35.0,17.0,-100.00,West,271,4.0,5.0,48,0.00,,,0.00,15.000000,,2013-01-07 11:32:00,
2013-01-07 04:53:00,34.0,18.0,-100.00,West,265,3.0,6.0,51,0.00,,,0.00,14.000000,,2013-01-07 11:53:00,
2013-01-07 05:03:00,34.0,18.0,-100.00,West,265,3.0,6.0,51,0.00,,,0.00,14.000000,,2013-01-07 12:03:00,
2013-01-07 05:12:00,34.0,18.0,-100.00,West,265,3.0,6.0,51,0.00,,,0.00,14.000000,,2013-01-07 12:12:00,
2013-01-07 05:22:00,34.0,18.0,-100.00,West,265,3.0,6.0,51,0.00,,,0.00,14.000000,,2013-01-07 12:22:00,
2013-01-07 05:33:00,34.0,18.0,-100.00,West,265,3.0,6.0,51,0.00,,,0.00,14.000000,,2013-01-07 12:33:00,
2013-01-07 06:02:00,34.0,19.0,-100.00,WNW,283,3.0,8.0,53,0.00,,,0.00,16.000000,,2013-01-07 13:02:00,
2013-01-07 06:12:00,34.0,19.0,-100.00,WNW,283,3.0,8.0,53,0.00,,,0.00,16.000000,,2013-01-07 13:12:00,
2013-01-07 06:23:00,34.0,19.0,-100.00,WNW,283,3.0,8.0,53,0.00,,,0.00,16.000000,,2013-01-07 13:23:00,
2013-01-07 06:33:00,34.0,19.0,-100.00,WNW,283,3.0,8.0,53,0.00,,,0.00,16.000000,,2013-01-07 13:33:00,
2013-01-07 06:53:00,32.0,18.0,-100.00,West,279,3.0,8.0,55,0.00,,,0.00,21.000000,,2013-01-07 13:53:00,
2013-01-07 07:03:00,32.0,18.0,-100.00,West,279,3.0,8.0,55,0.00,,,0.00,21.000000,,2013-01-07 14:03:00,
2013-01-07 07:12:00,32.0,18.0,-100.00,West,279,3.0,8.0,55,0.00,,,0.00,21.000000,,2013-01-07 14:12:00,
2013-01-07 07:22:00,32.0,18.0,-100.00,West,279,3.0,8.0,55,0.00,,,0.00,21.000000,,2013-01-07 14:22:00,
2013-01-07 07:33:00,32.0,18.0,-100.00,West,279,3.0,8.0,55,0.00,,,0.00,21.000000,,2013-01-07 14:33:00,
2013-01-07 07:53:00,34.0,19.0,-100.00,West,266,4.0,7.0,53,0.00,,,0.00,17.000000,,2013-01-07 14:53:00,
2013-01-07 08:03:00,34.0,19.0,-100.00,West,266,4.0,7.0,53,0.00,,,0.00,17.000000,,2013-01-07 15:03:00,
2013-01-07 08:12:00,34.0,19.0,-100.00,West,266,4.0,7.0,53,0.00,,,0.00,17.000000,,2013-01-07 15:12:00,
2013-01-07 08:22:00,34.0,19.0,-100.00,West,266,4.0,7.0,53,0.00,,,0.00,17.000000,,2013-01-07 15:22:00,
2013-01-07 08:33:00,34.0,19.0,-100.00,West,266,4.0,7.0,53,0.00,,,0.00,17.000000,,2013-01-07 15:33:00,
2013-01-07 08:53:00,33.0,18.0,-100.00,SSW,210,2.0,6.0,53,0.00,,,0.00,30.000000,,2013-01-07 15:53:00,
2013-01-07 09:02:00,33.0,18.0,-100.00,SSW,210,2.0,6.0,53,0.00,,,0.00,30.000000,,2013-01-07 16:02:00,
2013-01-07 09:12:00,33.0,18.0,-100.00,SSW,210,2.0,6.0,53,0.00,,,0.00,30.000000,,2013-01-07 16:12:00,
2013-01-07 09:22:00,33.0,18.0,-100.00,SSW,210,2.0,6.0,53,0.00,,,0.00,30.000000,,2013-01-07 16:22:00,
2013-01-07 09:33:00,33.0,18.0,-100.00,SSW,210,2.0,6.0,53,0.00,,,0.00,30.000000,,2013-01-07 16:33:00,
2013-01-07 10:03:00,38.0,20.0,-100.00,North,357,3.0,5.0,47,0.00,,,0.00,431.000000,,2013-01-07 17:03:00,
2013-01-07 10:12:00,38.0,20.0,-100.00,North,357,3.0,5.0,47,0.00,,,0.00,431.000000,,2013-01-07 17:12:00,
2013-01-07 10:23:00,38.0,20.0,-100.00,North,357,3.0,5.0,47,0.00,,,0.00,431.000000,,2013-01-07 17:23:00,
2013-01-07 10:33:00,38.0,20.0,-100.00,North,357,3.0,5.0,47,0.00,,,0.00,431.000000,,2013-01-07 17:33:00,
2013-01-07 10:53:00,40.0,20.0,-100.00,SE,135,4.0,9.0,44,0.00,,,0.00,308.000000,,2013-01-07 17:53:00,
2013-01-07 11:03:00,40.0,20.0,-100.00,SE,135,4.0,9.0,44,0.00,,,0.00,308.000000,,2013-01-07 18:03:00,
2013-01-07 11:12:00,40.0,20.0,-100.00,SE,135,4.0,9.0,44,0.00,,,0.00,308.000000,,2013-01-07 18:12:00,
2013-01-07 11:23:00,40.0,20.0,-100.00,SE,135,4.0,9.0,44,0.00,,,0.00,308.000000,,2013-01-07 18:23:00,
2013-01-07 11:32:00,40.0,20.0,-100.00,SE,135,4.0,9.0,44,0.00,,,0.00,308.000000,,2013-01-07 18:32:00,
2013-01-07 12:03:00,38.0,18.0,-100.00,SSE,157,6.0,11.0,44,0.00,,,0.00,88.000000,,2013-01-07 19:03:00,
2013-01-07 12:12:00,38.0,18.0,-100.00,SSE,157,6.0,11.0,44,0.00,,,0.00,88.000000,,2013-01-07 19:12:00,
2013-01-07 12:22:00,38.0,18.0,-100.00,SSE,157,6.0,11.0,44,0.00,,,0.00,88.000000,,2013-01-07 19:22:00,
2013-01-07 12:33:00,38.0,18.0,-100.00,SSE,157,6.0,11.0,44,0.00,,,0.00,88.000000,,2013-01-07 19:33:00,
2013-01-07 12:53:00,42.0,19.0,-100.00,ESE,110,5.0,19.0,40,0.00,,,0.00,63.000000,,2013-01-07 19:53:00,
2013-01-07 13:03:00,42.0,19.0,-100.00,ESE,110,5.0,19.0,40,0.00,,,0.00,63.000000,,2013-01-07 20:03:00,
2013-01-07 13:12:00,42.0,19.0,-100.00,ESE,110,5.0,19.0,40,0.00,,,0.00,63.000000,,2013-01-07 20:12:00,
2013-01-07 13:23:00,42.0,19.0,-100.00,ESE,110,5.0,19.0,40,0.00,,,0.00,63.000000,,2013-01-07 20:23:00,
2013-01-07 13:33:00,42.0,19.0,-100.00,ESE,110,5.0,19.0,40,0.00,,,0.00,63.000000,,2013-01-07 20:33:00,
2013-01-07 14:03:00,42.0,19.0,-100.00,SSW,198,6.0,15.0,40,0.00,,,0.00,35.000000,,2013-01-07 21:03:00,
2013-01-07 14:12:00,42.0,19.0,-100.00,SSW,198,6.0,15.0,40,0.00,,,0.00,35.000000,,2013-01-07 21:12:00,
2013-01-07 14:23:00,42.0,19.0,-100.00,SSW,198,6.0,15.0,40,0.00,,,0.00,35.000000,,2013-01-07 21:23:00,
2013-01-07 14:33:00,42.0,19.0,-100.00,SSW,198,6.0,15.0,40,0.00,,,0.00,35.000000,,2013-01-07 21:33:00,
2013-01-07 14:53:00,42.0,16.0,-100.00,NE,43,5.0,20.0,34,0.00,,,0.00,10.000000,,2013-01-07 21:53:00,
2013-01-07 15:03:00,42.0,16.0,-100.00,NE,43,5.0,20.0,34,0.00,,,0.00,10.000000,,2013-01-07 22:03:00,
2013-01-07 15:12:00,42.0,16.0,-100.00,NE,43,5.0,20.0,34,0.00,,,0.00,10.000000,,2013-01-07 22:12:00,
2013-01-07 15:22:00,42.0,16.0,-100.00,NE,43,5.0,20.0,34,0.00,,,0.00,10.000000,,2013-01-07 22:22:00,
2013-01-07 15:33:00,42.0,16.0,-100.00,NE,43,5.0,20.0,34,0.00,,,0.00,10.000000,,2013-01-07 22:33:00,
2013-01-07 16:02:00,39.0,10.0,-100.00,WSW,237,5.0,20.0,30,0.00,,,0.00,1.000000,,2013-01-07 23:02:00,
2013-01-07 16:12:00,39.0,10.0,-100.00,WSW,237,5.0,20.0,30,0.00,,,0.00,1.000000,,2013-01-07 23:12:00,
2013-01-07 16:22:00,39.0,10.0,-100.00,WSW,237,5.0,20.0,30,0.00,,,0.00,1.000000,,2013-01-07 23:22:00,
2013-01-07 16:33:00,39.0,10.0,-100.00,WSW,237,5.0,20.0,30,0.00,,,0.00,1.000000,,2013-01-07 23:33:00,
2013-01-07 16:53:00,38.0,11.0,-100.00,East,89,1.0,18.0,32,0.00,,,0.00,2.000000,,2013-01-07 23:53:00,
2013-01-07 17:03:00,38.0,11.0,-100.00,East,89,1.0,18.0,32,0.00,,,0.00,2.000000,,2013-01-08 00:03:00,
2013-01-07 17:12:00,38.0,11.0,-100.00,East,89,1.0,18.0,32,0.00,,,0.00,2.000000,,2013-01-08 00:12:00,
2013-01-07 17:22:00,38.0,11.0,-100.00,East,89,1.0,18.0,32,0.00,,,0.00,2.000000,,2013-01-08 00:22:00,
2013-01-07 17:33:00,38.0,11.0,-100.00,East,89,1.0,18.0,32,0.00,,,0.00,2.000000,,2013-01-08 00:33:00,
2013-01-07 18:03:00,33.0,10.0,-100.00,ENE,78,2.0,6.0,37,0.00,,,0.00,3.000000,,2013-01-08 01:03:00,
2013-01-07 18:12:00,33.0,10.0,-100.00,ENE,78,2.0,6.0,37,0.00,,,0.00,3.000000,,2013-01-08 01:12:00,
2013-01-07 18:22:00,33.0,10.0,-100.00,ENE,78,2.0,6.0,37,0.00,,,0.00,3.000000,,2013-01-08 01:22:00,
2013-01-07 18:33:00,33.0,10.0,-100.00,ENE,78,2.0,6.0,37,0.00,,,0.00,3.000000,,2013-01-08 01:33:00,
2013-01-07 18:52:00,32.0,9.0,-100.00,West,270,3.0,5.0,37,0.00,,,0.00,9.000000,,2013-01-08 01:52:00,
2013-01-07 19:02:00,32.0,9.0,-100.00,West,270,3.0,5.0,37,0.00,,,0.00,9.000000,,2013-01-08 02:02:00,
2013-01-07 19:12:00,32.0,9.0,-100.00,West,270,3.0,5.0,37,0.00,,,0.00,9.000000,,2013-01-08 02:12:00,
2013-01-07 19:22:00,32.0,9.0,-100.00,West,270,3.0,5.0,37,0.00,,,0.00,9.000000,,2013-01-08 02:22:00,
2013-01-07 19:32:00,32.0,9.0,-100.00,West,270,3.0,5.0,37,0.00,,,0.00,9.000000,,2013-01-08 02:32:00,
2013-01-07 19:53:00,32.0,8.0,-100.00,West,267,2.0,6.0,36,0.00,,,0.00,12.000000,,2013-01-08 02:53:00,
2013-01-07 20:03:00,32.0,8.0,-100.00,West,267,2.0,6.0,36,0.00,,,0.00,12.000000,,2013-01-08 03:03:00,
2013-01-07 20:12:00,32.0,8.0,-100.00,West,267,2.0,6.0,36,0.00,,,0.00,12.000000,,2013-01-08 03:12:00,
2013-01-07 20:22:00,32.0,8.0,-100.00,West,267,2.0,6.0,36,0.00,,,0.00,12.000000,,2013-01-08 03:22:00,
2013-01-07 20:32:00,32.0,8.0,-100.00,West,267,2.0,6.0,36,0.00,,,0.00,12.000000,,2013-01-08 03:32:00,
2013-01-07 21:02:00,32.0,8.0,-100.00,WSW,242,2.0,6.0,36,0.00,,,0.00,21.000000,,2013-01-08 04:02:00,
2013-01-07 21:12:00,32.0,8.0,-100.00,WSW,242,2.0,6.0,36,0.00,,,0.00,21.000000,,2013-01-08 04:12:00,
2013-01-07 21:22:00,32.0,8.0,-100.00,WSW,242,2.0,6.0,36,0.00,,,0.00,21.000000,,2013-01-08 04:22:00,
2013-01-07 21:32:00,32.0,8.0,-100.00,WSW,242,2.0,6.0,36,0.00,,,0.00,21.000000,,2013-01-08 04:32:00,
2013-01-07 22:03:00,33.0,11.0,-100.00,SSE,163,2.0,5.0,39,0.00,,,0.00,33.000000,,2013-01-08 05:03:00,
2013-01-07 22:12:00,33.0,11.0,-100.00,SSE,163,2.0,5.0,39,0.00,,,0.00,33.000000,,2013-01-08 05:12:00,
2013-01-07 22:22:00,33.0,11.0,-100.00,SSE,163,2.0,5.0,39,0.00,,,0.00,33.000000,,2013-01-08 05:22:00,
2013-01-07 22:33:00,33.0,11.0,-100.00,SSE,163,2.0,5.0,39,0.00,,,0.00,33.000000,,2013-01-08 05:33:00,
2013-01-07 23:02:00,33.0,13.0,-100.00,SSE,156,3.0,7.0,44,0.00,,,0.00,48.000000,,2013-01-08 06:02:00,
2013-01-07 23:12:00,33.0,13.0,-100.00,SSE,156,3.0,7.0,44,0.00,,,0.00,48.000000,,2013-01-08 06:12:00,
2013-01-07 23:22:00,33.0,13.0,-100.00,SSE,156,3.0,7.0,44,0.00,,,0.00,48.000000,,2013-01-08 06:22:00,
2013-01-07 23:33:00,33.0,13.0,-100.00,SSE,156,3.0,7.0,44,0.00,,,0.00,48.000000,,2013-01-08 06:33:00,